FW9036 Weather Reports


time (UTC)temp
C
wind
direction
speed
KPH
gust
KPH
rain 1hr
cm
rain 24hr
cm
rain mn
cm
humidity
%
barometer
mb
20260902034125 27 140 0.0 1.6 0.00 0.00 0.00 89 1015.4
20260902033624 27 211 0.0 0.0 0.00 0.00 0.00 89 1015.5
20260902033119 27 123 0.0 0.0 0.00 0.00 0.00 89 1015.6
20260902032618 27 210 0.0 0.0 0.00 0.00 0.00 89 1015.6
20260902032112 27 6 0.0 1.6 0.00 0.00 0.00 89 1015.9
20260902031607 27 205 0.0 0.0 0.00 0.00 0.00 89 1015.7
20260902031103 27 110 0.0 0.0 0.00 0.00 0.00 89 1015.8
20260902030558 27 110 0.0 0.0 0.00 0.00 0.00 89 1015.7
20260902030058 27 98 0.0 0.0 0.00 0.00 0.00 89 1015.9
20260902025558 27 356 0.0 0.0 0.00 0.00 0.00 90 1015.9
20260902025053 27 85 0.0 0.0 0.00 0.00 0.00 89 1016.0
20260902024549 27 85 0.0 0.0 0.00 0.00 0.00 89 1015.8
20260902024048 27 123 0.0 1.6 0.00 0.00 0.00 88 1016.0
20260902023544 27 346 0.0 0.0 0.00 0.00 0.00 88 1015.7
20260902023039 27 94 0.0 0.0 0.00 0.00 0.00 88 1015.9
20260902022533 27 3 0.0 1.6 0.00 0.00 0.00 88 1016.0
20260902022029 27 14 1.6 1.6 0.00 0.00 0.00 88 1015.9
20260902021525 27 221 0.0 1.6 0.00 0.00 0.00 88 1016.0
20260902021025 27 308 0.0 1.6 0.00 0.00 0.00 87 1015.8
20260902020520 27 58 0.0 1.6 0.00 0.00 0.00 87 1016.1
20260902020016 27 34 0.0 1.6 0.00 0.00 0.00 87 1015.8
20260902015512 27 42 0.0 1.6 0.00 0.00 0.00 87 1015.8
20260902015007 27 110 0.0 3.2 0.00 0.00 0.00 87 1015.7
20260902014503 27 237 0.0 3.2 0.00 0.00 0.00 87 1015.9
20260902013958 27 210 0.0 1.6 0.00 0.00 0.00 87 1015.6
20260902013453 27 265 0.0 3.2 0.00 0.00 0.00 87 1015.6
20260902012948 27 40 3.2 3.2 0.00 0.00 0.00 87 1015.6
20260902012444 27 87 0.0 0.0 0.00 0.00 0.00 87 1015.7
20260902011939 27 31 0.0 3.2 0.00 0.00 0.00 87 1015.5
20260902011435 27 207 0.0 1.6 0.00 0.00 0.00 87 1015.4
20260902010934 27 216 0.0 1.6 0.00 0.00 0.00 86 1015.3
20260902010429 27 184 1.6 3.2 0.00 0.00 0.00 86 1015.3
20260902005928 27 150 1.6 1.6 0.00 0.00 0.00 86 1015.3
20260902005427 27 134 0.0 0.0 0.00 0.00 0.00 86 1015.4
20260902004924 27 186 0.0 3.2 0.00 0.00 0.00 85 1015.3
20260902004423 27 162 1.6 3.2 0.00 0.00 0.00 86 1015.2
20260902003918 27 144 0.0 3.2 0.00 0.00 0.00 85 1015.2
20260902003413 27 36 1.6 3.2 0.00 0.00 0.00 85 1015.2
20260902002909 27 205 0.0 4.8 0.00 0.00 0.00 85 1015.1
20260902002409 27 70 0.0 3.2 0.00 0.00 0.00 85 1015.2
20260902001903 27 161 0.0 1.6 0.00 0.00 0.00 85 1015.6
20260902001358 27 124 0.0 1.6 0.00 0.00 0.00 85 1015.4
20260902000853 28 23 4.8 4.8 0.00 0.00 0.00 84 1015.4
20260902000353 28 17 4.8 4.8 0.00 0.00 0.00 83 1015.3
20260901235848 28 98 0.0 1.6 0.00 0.00 0.00 83 1015.4
20260901235343 28 180 1.6 3.2 0.00 0.00 0.00 82 1015.3
20260901234838 28 116 0.0 1.6 0.00 0.00 0.00 82 1015.1
20260901234332 28 172 0.0 3.2 0.00 0.00 0.00 82 1015.4
20260901233827 28 359 0.0 3.2 0.00 0.00 0.00 82 1015.3
20260901233323 28 10 0.0 3.2 0.00 0.00 0.00 81 1015.2
20260901232819 28 46 0.0 4.8 0.00 0.00 0.00 81 1015.1
20260901232313 28 18 0.0 4.8 0.00 0.00 0.00 80 1015.2
20260901231809 28 20 0.0 3.2 0.00 0.00 0.00 79 1015.1
20260901231305 28 79 0.0 4.8 0.00 0.00 0.00 79 1015.2
20260901230802 28 111 4.8 4.8 0.00 0.00 0.00 78 1015.2
20260901230301 28 153 0.0 4.8 0.00 0.00 0.00 78 1015.0
20260901225756 28 37 4.8 4.8 0.00 0.00 0.00 77 1015.0
20260901225250 29 100 0.0 3.2 0.00 0.00 0.00 77 1015.2
20260901224746 29 149 3.2 3.2 0.00 0.00 0.00 76 1015.0
20260901224242 30 125 0.0 3.2 0.00 0.00 0.00 75 1015.0
20260901223738 30 217 0.0 3.2 0.00 0.00 0.00 74 1015.1
20260901223238 29 182 0.0 4.8 0.00 0.00 0.00 74 1014.8
20260901222734 29 94 3.2 3.2 0.00 0.00 0.00 75 1015.0
20260901222230 30 245 0.0 4.8 0.00 0.00 0.00 72 1015.0
20260901221726 30 0 4.8 8.0 0.00 0.00 0.00 72 1015.1
20260901221222 30 59 3.2 4.8 0.00 0.00 0.00 71 1015.0
20260901220721 30 70 0.0 3.2 0.00 0.00 0.00 69 1015.0
20260901220221 31 48 1.6 4.8 0.00 0.00 0.00 68 1015.1
20260901215719 31 86 1.6 1.6 0.00 0.00 0.00 68 1015.2
20260901215213 30 7 1.6 4.8 0.00 0.00 0.00 69 1014.9
20260901214711 30 69 0.0 8.0 0.00 0.00 0.00 69 1015.1
20260901214201 30 98 0.0 6.4 0.00 0.00 0.00 69 1014.9
20260901213700 30 88 3.2 8.0 0.00 0.00 0.00 69 1014.9
20260901213155 30 24 1.6 3.2 0.00 0.00 0.00 69 1015.0
20260901212654 30 20 4.8 4.8 0.00 0.00 0.00 67 1014.9
20260901212151 30 53 3.2 3.2 0.00 0.00 0.00 67 1015.1
20260901211651 30 32 4.8 4.8 0.00 0.00 0.00 66 1015.1
20260901211147 30 42 0.0 4.8 0.00 0.00 0.00 66 1015.1
20260901210643 30 129 3.2 6.4 0.00 0.00 0.00 67 1014.9
20260901210139 30 358 3.2 3.2 0.00 0.00 0.00 66 1014.8
20260901205634 31 94 0.0 11.3 0.00 0.00 0.00 65 1015.2
20260901205129 31 81 0.0 4.8 0.00 0.00 0.00 62 1014.8
20260901204625 31 148 0.0 3.2 0.00 0.00 0.00 64 1015.2
20260901204125 32 169 0.0 4.8 0.00 0.00 0.00 62 1015.0
20260901203620 32 50 3.2 4.8 0.00 0.00 0.00 61 1015.0
20260901203114 31 110 1.6 4.8 0.00 0.00 0.00 64 1015.2
20260901202614 31 27 3.2 4.8 0.00 0.00 0.00 64 1015.1
20260901202110 31 29 3.2 3.2 0.00 0.00 0.00 63 1015.4
20260901201606 31 73 3.2 6.4 0.00 0.00 0.00 64 1015.4
20260901201105 31 15 4.8 8.0 0.00 0.00 0.00 62 1015.3
20260901200604 31 59 3.2 4.8 0.00 0.00 0.00 63 1015.6
20260901200059 31 59 1.6 4.8 0.00 0.00 0.00 63 1015.5
20260901195557 31 52 3.2 8.0 0.00 0.00 0.00 62 1015.5
20260901195057 31 17 4.8 6.4 0.00 0.00 0.00 62 1015.5
20260901194552 31 59 3.2 8.0 0.00 0.00 0.00 62 1015.6
20260901194047 31 24 3.2 8.0 0.00 0.00 0.00 62 1015.4
20260901193542 32 53 6.4 6.4 0.00 0.00 0.00 61 1015.3
20260901193037 32 42 6.4 8.0 0.00 0.00 0.00 60 1015.3
20260901192532 32 18 9.7 16.1 0.00 0.00 0.00 60 1015.3
20260901192028 32 26 8.0 9.7 0.00 0.00 0.00 61 1015.3
20260901191524 32 118 3.2 11.3 0.00 0.00 0.00 62 1015.4
20260901191020 33 37 4.8 9.7 0.00 0.00 0.00 56 1015.4
20260901190515 33 81 3.2 4.8 0.00 0.00 0.00 57 1015.2
20260901190014 32 63 0.0 14.5 0.00 0.00 0.00 58 1015.1
20260901185513 33 23 4.8 11.3 0.00 0.00 0.00 55 1015.2
20260901185012 33 62 3.2 8.0 0.00 0.00 0.00 56 1015.1
20260901184507 33 15 8.0 8.0 0.00 0.00 0.00 55 1015.3
20260901184003 33 57 1.6 6.4 0.00 0.00 0.00 57 1015.3
20260901183457 33 104 3.2 8.0 0.00 0.00 0.00 58 1015.2
20260901182953 33 85 1.6 8.0 0.00 0.00 0.00 58 1015.5
20260901182448 33 56 4.8 8.0 0.00 0.00 0.00 58 1015.5
20260901181943 33 60 6.4 6.4 0.00 0.00 0.00 58 1015.7
20260901181443 33 97 0.0 8.0 0.00 0.00 0.00 58 1015.7
20260901180941 33 49 3.2 8.0 0.00 0.00 0.00 58 1015.9
20260901180436 33 99 4.8 6.4 0.00 0.00 0.00 59 1016.0
20260901175934 33 52 4.8 6.4 0.00 0.00 0.00 59 1015.9
20260901175429 32 34 1.6 8.0 0.00 0.00 0.00 61 1016.1
20260901174924 33 116 3.2 8.0 0.00 0.00 0.00 62 1016.1
20260901174420 32 28 3.2 8.0 0.00 0.00 0.00 61 1016.1
20260901173916 32 83 4.8 4.8 0.00 0.00 0.00 63 1016.2
20260901173411 32 49 1.6 6.4 0.00 0.00 0.00 62 1016.3
20260901172907 32 79 3.2 4.8 0.00 0.00 0.00 62 1016.4
20260901172401 32 68 3.2 6.4 0.00 0.00 0.00 64 1016.4
20260901171859 32 87 1.6 6.4 0.00 0.00 0.00 66 1016.3
20260901171358 32 13 8.0 9.7 0.00 0.00 0.00 65 1016.6
20260901170856 32 49 4.8 6.4 0.00 0.00 0.00 65 1016.5
20260901170352 32 58 4.8 6.4 0.00 0.00 0.00 63 1016.5
20260901165846 32 53 3.2 4.8 0.00 0.00 0.00 63 1016.7
20260901165340 32 110 3.2 4.8 0.00 0.00 0.00 64 1016.7
20260901164837 33 51 6.4 6.4 0.00 0.00 0.00 62 1016.6
20260901164332 32 54 3.2 8.0 0.00 0.00 0.00 61 1016.7
20260901163831 32 63 3.2 8.0 0.00 0.00 0.00 65 1016.9
20260901163327 32 73 3.2 8.0 0.00 0.00 0.00 63 1016.6
20260901162822 32 116 0.0 8.0 0.00 0.00 0.00 63 1016.7
20260901162321 32 98 4.8 8.0 0.00 0.00 0.00 64 1016.9
20260901161820 32 98 3.2 4.8 0.00 0.00 0.00 64 1016.7
20260901161314 32 167 3.2 6.4 0.00 0.00 0.00 67 1016.7
20260901160810 31 10 0.0 4.8 0.00 0.00 0.00 67 1016.7
20260901160306 31 78 3.2 8.0 0.00 0.00 0.00 66 1016.8
20260901155805 31 31 0.0 4.8 0.00 0.00 0.00 64 1017.0
20260901155300 31 58 0.0 8.0 0.00 0.00 0.00 67 1016.8
20260901154756 31 59 3.2 6.4 0.00 0.00 0.00 66 1016.8
20260901154256 31 67 0.0 4.8 0.00 0.00 0.00 67 1017.0
20260901153751 31 46 3.2 4.8 0.00 0.00 0.00 68 1016.9
20260901153251 30 297 1.6 6.4 0.00 0.00 0.00 73 1017.0
20260901152750 29 4 0.0 4.8 0.00 0.00 0.00 78 1016.9
20260901152249 29 297 1.6 4.8 0.00 0.00 0.00 79 1016.8
20260901151744 29 10 1.6 8.0 0.00 0.00 0.00 79 1016.7
20260901151244 29 356 3.2 8.0 0.00 0.00 0.00 78 1017.2
20260901150744 30 285 8.0 11.3 0.00 0.00 0.00 77 1016.9
20260901150242 30 207 1.6 8.0 0.00 0.00 0.00 79 1016.9
20260901145740 29 5 3.2 4.8 0.00 0.00 0.00 79 1016.7
20260901145240 29 26 4.8 8.0 0.00 0.00 0.00 79 1016.6
20260901144735 29 38 0.0 4.8 0.00 0.00 0.00 79 1016.7
20260901144231 28 70 1.6 4.8 0.00 0.00 0.00 81 1016.8
20260901143726 28 250 0.0 0.0 0.00 0.00 0.00 81 1016.7
20260901143222 28 30 0.0 3.2 0.00 0.00 0.00 80 1016.5
20260901142719 28 123 0.0 3.2 0.00 0.00 0.00 80 1016.6
20260901142218 28 261 0.0 3.2 0.00 0.00 0.00 82 1016.8
20260901141713 28 5 3.2 3.2 0.00 0.00 0.00 81 1016.8
20260901141213 28 41 0.0 3.2 0.00 0.00 0.00 81 1016.5
20260901140712 28 46 0.0 4.8 0.00 0.00 0.00 80 1016.5
20260901140210 28 15 1.6 3.2 0.00 0.00 0.00 81 1016.7
20260901135706 28 129 1.6 4.8 0.00 0.00 0.00 81 1016.8
20260901135200 28 224 0.0 1.6 0.00 0.00 0.00 83 1016.7
20260901134656 28 148 1.6 3.2 0.00 0.00 0.00 85 1016.7
20260901134151 28 56 0.0 1.6 0.00 0.00 0.00 85 1016.6
20260901133650 28 15 0.0 3.2 0.00 0.00 0.00 85 1016.7
20260901133149 28 311 0.0 4.8 0.00 0.00 0.00 85 1016.6
20260901132643 28 186 0.0 3.2 0.00 0.00 0.00 86 1016.7
20260901132143 27 110 0.0 3.2 0.00 0.00 0.00 87 1016.5
20260901131643 27 209 0.0 3.2 0.00 0.00 0.00 89 1016.6
20260901131138 27 36 0.0 1.6 0.00 0.00 0.00 90 1016.6
20260901130633 27 5 0.0 4.8 0.00 0.00 0.00 90 1016.7
20260901130132 27 33 1.6 4.8 0.00 0.00 0.00 91 1016.5
20260901125630 27 53 1.6 4.8 0.00 0.00 0.00 91 1016.6
20260901125125 27 129 0.0 3.2 0.00 0.00 0.00 92 1016.4
20260901124620 26 318 0.0 4.8 0.00 0.00 0.00 92 1016.6
20260901124114 26 250 0.0 4.8 0.00 0.00 0.00 92 1016.4
20260901123615 26 270 0.0 0.0 0.00 0.00 0.00 93 1016.6
20260901123114 26 32 0.0 4.8 0.00 0.00 0.00 93 1016.3
20260901122612 26 30 3.2 3.2 0.00 0.00 0.00 93 1016.4
20260901122107 26 284 3.2 4.8 0.00 0.00 0.00 93 1016.2
20260901121602 26 215 1.6 3.2 0.00 0.00 0.00 94 1016.2
20260901121057 26 18 1.6 4.8 0.00 0.00 0.00 94 1016.0
20260901120556 26 265 0.0 0.0 0.00 0.00 0.00 94 1016.0
20260901120052 26 341 0.0 1.6 0.00 0.00 0.00 94 1016.2
20260901115547 26 123 0.0 1.6 0.00 0.00 0.00 95 1016.2
20260901115044 25 187 0.0 1.6 0.00 0.00 0.00 95 1016.2
20260901114540 25 275 0.0 3.2 0.00 0.00 0.00 95 1015.8
20260901114039 25 285 1.6 1.6 0.00 0.00 0.00 95 1015.9
20260901113538 25 219 1.6 3.2 0.00 0.00 0.00 95 1016.1
20260901113033 25 31 0.0 1.6 0.00 0.00 0.00 96 1015.9
20260901112527 25 84 0.0 1.6 0.00 0.00 0.00 96 1015.9
20260901112023 25 87 0.0 1.6 0.00 0.00 0.00 96 1015.8
20260901111521 25 140 0.0 1.6 0.00 0.00 0.00 96 1015.6
20260901111020 25 97 0.0 0.0 0.00 0.00 0.00 96 1015.5
20260901110516 25 109 0.0 0.0 0.00 0.00 0.00 96 1015.4
20260901110011 25 237 0.0 1.6 0.00 0.00 0.00 96 1015.6
20260901105507 25 207 0.0 1.6 0.00 0.00 0.00 96 1015.5
20260901105007 25 235 0.0 1.6 0.00 0.00 0.00 96 1015.6
20260901104503 25 31 0.0 1.6 0.00 0.00 0.00 96 1015.5
20260901103957 25 41 0.0 1.6 0.00 0.00 0.00 96 1015.4
20260901103453 25 45 0.0 1.6 0.00 0.00 0.00 96 1015.5
20260901102948 25 108 0.0 3.2 0.00 0.00 0.00 96 1015.2
20260901102448 25 296 0.0 1.6 0.00 0.00 0.00 96 1015.4
20260901101942 25 98 0.0 0.0 0.00 0.00 0.00 96 1015.3
20260901101438 25 88 0.0 1.6 0.00 0.00 0.00 96 1015.6
20260901100932 25 359 3.2 3.2 0.00 0.00 0.00 96 1015.2
20260901100427 25 183 0.0 1.6 0.00 0.00 0.00 96 1015.2
20260901095926 25 43 0.0 0.0 0.00 0.00 0.00 96 1015.4
20260901095425 25 302 0.0 1.6 0.00 0.00 0.00 96 1015.3
20260901094917 25 70 0.0 0.0 0.00 0.00 0.00 96 1015.3
20260901094418 25 190 0.0 1.6 0.00 0.00 0.00 96 1015.0
20260901093912 25 17 0.0 1.6 0.00 0.00 0.00 96 1015.1
20260901093411 25 325 0.0 0.0 0.00 0.00 0.00 96 1015.2
20260901092907 25 14 1.6 1.6 0.00 0.00 0.00 96 1015.1
20260901092403 25 134 0.0 0.0 0.00 0.00 0.00 96 1015.4
20260901091859 25 236 0.0 0.0 0.00 0.00 0.00 96 1015.3
20260901091358 25 163 0.0 1.6 0.00 0.00 0.00 96 1015.2
20260901090847 25 13 0.0 1.6 0.00 0.00 0.00 96 1015.1
20260901090342 25 36 0.0 0.0 0.00 0.00 0.00 96 1014.9
20260901085838 25 198 0.0 0.0 0.00 0.00 0.00 96 1014.9
20260901085333 25 85 0.0 1.6 0.00 0.00 0.00 96 1014.8
20260901084830 25 186 0.0 0.0 0.00 0.00 0.00 96 1014.9
20260901084326 25 25 0.0 0.0 0.00 0.00 0.00 96 1014.8
20260901083821 25 25 0.0 3.2 0.00 0.00 0.00 96 1015.1
20260901083321 25 10 0.0 1.6 0.00 0.00 0.00 96 1015.2
20260901082819 25 18 0.0 0.0 0.00 0.00 0.00 96 1014.8
20260901082315 25 25 0.0 0.0 0.00 0.00 0.00 96 1014.8
20260901081810 25 144 0.0 0.0 0.00 0.00 0.00 96 1015.1
20260901081309 25 144 0.0 0.0 0.00 0.00 0.00 96 1014.9
20260901080805 25 144 0.0 0.0 0.00 0.00 0.00 96 1015.1
20260901080304 25 144 0.0 0.0 0.00 0.00 0.00 96 1015.0
20260901075758 25 144 0.0 0.0 0.00 0.00 0.00 96 1014.9
20260901075254 25 308 0.0 0.0 0.00 0.00 0.00 96 1014.9
20260901074748 25 134 0.0 0.0 0.00 0.00 0.00 96 1015.0
20260901074243 25 134 0.0 0.0 0.00 0.00 0.00 96 1015.0
20260901073739 25 134 0.0 0.0 0.00 0.00 0.00 96 1015.2
20260901073234 25 134 0.0 0.0 0.00 0.00 0.00 96 1015.1
20260901072729 25 134 0.0 0.0 0.00 0.00 0.00 95 1015.3
20260901072224 25 134 0.0 0.0 0.00 0.00 0.00 95 1015.2
20260901071719 25 134 0.0 0.0 0.00 0.00 0.00 95 1015.5
20260901071219 25 134 0.0 0.0 0.00 0.00 0.00 95 1015.3
20260901070712 25 134 0.0 0.0 0.00 0.00 0.00 95 1015.6
20260901070208 25 134 0.0 0.0 0.00 0.00 0.00 95 1015.5
20260901065707 25 176 0.0 0.0 0.00 0.00 0.00 94 1015.6
20260901065202 25 176 0.0 0.0 0.00 0.00 0.00 94 1015.4
20260901064659 25 176 0.0 0.0 0.00 0.00 0.00 94 1015.5
20260901064155 25 31 0.0 0.0 0.00 0.00 0.00 94 1015.7
20260901063652 25 31 0.0 0.0 0.00 0.00 0.00 94 1015.7
20260901063147 25 31 0.0 1.6 0.00 0.00 0.00 94 1015.9
20260901062643 25 25 0.0 0.0 0.00 0.00 0.00 94 1015.9
20260901062139 25 123 0.0 0.0 0.00 0.00 0.00 94 1015.9
20260901061635 25 123 0.0 0.0 0.00 0.00 0.00 94 1015.9
20260901061134 25 123 0.0 0.0 0.00 0.00 0.00 94 1016.0
20260901060629 25 123 0.0 0.0 0.00 0.00 0.00 93 1016.0
20260901060125 25 123 0.0 0.0 0.00 0.00 0.00 94 1016.0
20260901055620 25 123 0.0 0.0 0.00 0.00 0.00 93 1016.1
20260901055116 25 123 0.0 0.0 0.00 0.00 0.00 93 1016.1
20260901054613 25 123 0.0 0.0 0.00 0.00 0.00 93 1016.0
20260901054109 25 123 0.0 0.0 0.00 0.00 0.00 93 1016.1
20260901053605 25 123 0.0 0.0 0.00 0.00 0.00 93 1016.2
20260901053100 25 123 0.0 0.0 0.00 0.00 0.00 93 1016.3
20260901052600 25 123 0.0 0.0 0.00 0.00 0.00 93 1016.2
20260901052055 26 198 0.0 0.0 0.00 0.00 0.00 93 1016.2
20260901051550 26 134 0.0 0.0 0.00 0.00 0.00 93 1016.4
20260901051049 26 134 0.0 0.0 0.00 0.00 0.00 92 1016.3
20260901050544 26 134 0.0 0.0 0.00 0.00 0.00 92 1016.4
20260901050039 26 134 0.0 0.0 0.00 0.00 0.00 92 1016.3
20260901045534 26 134 0.0 0.0 0.00 0.00 0.00 92 1016.3
20260901045029 26 31 0.0 0.0 0.00 0.00 0.00 92 1016.2
20260901044525 26 19 0.0 0.0 0.00 0.00 0.00 92 1016.5
20260901044021 26 199 0.0 0.0 0.00 0.00 0.00 92 1016.3
20260901043516 26 199 0.0 0.0 0.00 0.00 0.00 91 1016.6
20260901043011 26 199 0.0 0.0 0.00 0.00 0.00 91 1016.6
20260901042511 26 199 0.0 0.0 0.00 0.00 0.00 90 1016.5
20260901042006 26 167 1.6 1.6 0.00 0.00 0.00 90 1016.5
20260901041501 26 198 0.0 0.0 0.00 0.00 0.00 90 1016.6
20260901040955 26 13 0.0 1.6 0.00 0.00 0.00 90 1016.4
20260901040450 26 357 0.0 3.2 0.00 0.00 0.00 90 1016.3
20260901035949 26 150 0.0 1.6 0.00 0.00 0.00 90 1016.5
20260901035448 26 50 0.0 0.0 0.00 0.00 0.00 90 1016.6
20260901034947 26 0 0.0 3.2 0.00 0.00 0.00 90 1016.8